5BLKA RJBD-RJTH

Flight info

Callsign 5BLKA
Flight time 1h 5m
Altitude 31000
Route KEC AGIMO
Aircraft SF50/L-SBDGRWY/LB2U2

Departure

Time 2026-04-20 06:20
Airport Nanki Shirahama Airport (RJBD)

Arrival

Time 2026-04-20 07:25
Airport Hachijojima Airport (RJTH)
Time Latitude Longitude Altitude Speed Heading
2026-04-20 06:11 33.66350 135.36085 308 ft 0 kts 321°
2026-04-20 06:16 33.66349 135.36078 335 ft 3 kts 187°
2026-04-20 06:16 33.66334 135.36129 307 ft 9 kts 115°
2026-04-20 06:17 33.66352 135.36201 304 ft 12 kts 40°
2026-04-20 06:17 33.66430 135.36253 297 ft 12 kts 333°
2026-04-20 06:17 33.66496 135.36194 298 ft 12 kts 322°
2026-04-20 06:17 33.66564 135.36131 300 ft 13 kts 321°
2026-04-20 06:18 33.66636 135.36060 300 ft 14 kts 321°
2026-04-20 06:18 33.66712 135.35985 300 ft 15 kts 321°
2026-04-20 06:18 33.66801 135.35899 301 ft 18 kts 321°
2026-04-20 06:18 33.66862 135.35810 300 ft 12 kts 291°
2026-04-20 06:19 33.66907 135.35756 299 ft 3 kts 34°
2026-04-20 06:19 33.66908 135.35790 299 ft 6 kts 120°
2026-04-20 06:19 33.66889 135.35814 298 ft 0 kts 140°
2026-04-20 06:20 33.66801 135.35900 301 ft 48 kts 142°
2026-04-20 06:20 33.66375 135.36323 368 ft 102 kts 140°
2026-04-20 06:20 33.65778 135.36841 850 ft 110 kts 141°
2026-04-20 06:20 33.65174 135.37510 1293 ft 128 kts 137°
2026-04-20 06:21 33.64379 135.38179 1764 ft 148 kts 143°
2026-04-20 06:21 33.63555 135.38920 2478 ft 150 kts 130°
2026-04-20 06:21 33.63069 135.40022 3072 ft 152 kts 114°
2026-04-20 06:21 33.62561 135.41150 3604 ft 153 kts 120°
2026-04-20 06:22 33.62000 135.42201 4166 ft 148 kts 124°
2026-04-20 06:22 33.61557 135.43363 4316 ft 160 kts 111°
2026-04-20 06:22 33.61065 135.44543 4821 ft 162 kts 123°
2026-04-20 06:22 33.60465 135.45696 5385 ft 162 kts 123°
2026-04-20 06:23 33.59850 135.46860 5813 ft 170 kts 126°
2026-04-20 06:23 33.59078 135.47925 6279 ft 170 kts 139°
2026-04-20 06:23 33.58298 135.48961 6847 ft 173 kts 124°
2026-04-20 06:23 33.57929 135.50423 7210 ft 187 kts 107°
2026-04-20 06:24 33.57625 135.51864 8078 ft 171 kts 111°
2026-04-20 06:24 33.57366 135.53266 8556 ft 183 kts 105°
2026-04-20 06:24 33.56915 135.54775 8693 ft 198 kts 128°
2026-04-20 06:24 33.56144 135.56028 9564 ft 180 kts 131°
2026-04-20 06:25 33.55356 135.57205 10038 ft 185 kts 136°
2026-04-20 06:25 33.54394 135.58247 10420 ft 187 kts 144°
2026-04-20 06:25 33.53593 135.59481 10897 ft 195 kts 121°
2026-04-20 06:25 33.53199 135.61097 11241 ft 209 kts 104°
2026-04-20 06:26 33.53021 135.62793 11862 ft 200 kts 103°
2026-04-20 06:26 33.52543 135.64349 12195 ft 203 kts 122°
2026-04-20 06:26 33.51759 135.65783 12548 ft 206 kts 130°
2026-04-20 06:26 33.50842 135.67072 13087 ft 203 kts 136°
2026-04-20 06:27 33.49915 135.68377 13462 ft 210 kts 135°
2026-04-20 06:27 33.48973 135.69735 13868 ft 213 kts 128°
2026-04-20 06:27 33.48373 135.71366 14263 ft 216 kts 110°
2026-04-20 06:27 33.47788 135.73038 14597 ft 219 kts 120°
2026-04-20 06:28 33.47026 135.74628 14949 ft 222 kts 123°
2026-04-20 06:28 33.46245 135.76232 15321 ft 223 kts 122°
2026-04-20 06:28 33.45484 135.77869 15692 ft 226 kts 121°
2026-04-20 06:28 33.44870 135.79597 16037 ft 229 kts 103°
2026-04-20 06:29 33.44760 135.81506 16373 ft 231 kts 88°
2026-04-20 06:29 33.44795 135.83444 16715 ft 234 kts 88°
2026-04-20 06:29 33.44808 135.85399 17060 ft 236 kts 88°
2026-04-20 06:29 33.44822 135.87372 17398 ft 238 kts 88°
2026-04-20 06:30 33.44838 135.89363 17715 ft 240 kts 87°
2026-04-20 06:30 33.44852 135.91369 18040 ft 242 kts 87°
2026-04-20 06:30 33.44867 135.93391 18349 ft 244 kts 86°
2026-04-20 06:30 33.44880 135.95429 18633 ft 246 kts 86°
2026-04-20 06:31 33.44894 135.97478 18918 ft 246 kts 86°
2026-04-20 06:31 33.44911 135.99533 19205 ft 247 kts 86°
2026-04-20 06:31 33.44924 136.01596 19486 ft 248 kts 86°
2026-04-20 06:31 33.44940 136.03669 19762 ft 250 kts 86°
2026-04-20 06:32 33.44953 136.05752 20039 ft 251 kts 86°
2026-04-20 06:32 33.44967 136.07840 20304 ft 252 kts 85°
2026-04-20 06:32 33.44980 136.09947 20578 ft 253 kts 85°
2026-04-20 06:32 33.44993 136.12055 20847 ft 254 kts 85°
2026-04-20 06:33 33.45005 136.14172 21136 ft 254 kts 85°
2026-04-20 06:33 33.45015 136.16260 21436 ft 254 kts 85°
2026-04-20 06:33 33.45027 136.18372 21759 ft 253 kts 85°
2026-04-20 06:33 33.45037 136.20473 22107 ft 252 kts 85°
2026-04-20 06:34 33.45048 136.22571 22467 ft 252 kts 85°
2026-04-20 06:34 33.45059 136.24669 22811 ft 252 kts 85°
2026-04-20 06:34 33.45074 136.28864 23423 ft 252 kts 84°
2026-04-20 06:35 33.45085 136.30958 23694 ft 252 kts 84°
2026-04-20 06:35 33.45096 136.33051 23950 ft 251 kts 84°
2026-04-20 06:35 33.45104 136.35133 24224 ft 249 kts 83°
2026-04-20 06:35 33.45111 136.37202 24497 ft 248 kts 84°
2026-04-20 06:36 33.45121 136.39265 24754 ft 248 kts 84°
2026-04-20 06:36 33.45127 136.41329 25020 ft 248 kts 83°
2026-04-20 06:36 33.45134 136.43389 25289 ft 247 kts 83°
2026-04-20 06:36 33.45140 136.45443 25559 ft 247 kts 82°
2026-04-20 06:37 33.45146 136.47494 25833 ft 246 kts 82°
2026-04-20 06:37 33.45153 136.49541 26111 ft 245 kts 82°
2026-04-20 06:37 33.45157 136.51582 26391 ft 245 kts 81°
2026-04-20 06:37 33.45163 136.53618 26670 ft 244 kts 81°
2026-04-20 06:38 33.45167 136.55649 26950 ft 243 kts 81°
2026-04-20 06:38 33.45174 136.57673 27247 ft 243 kts 80°
2026-04-20 06:38 33.45178 136.59698 27525 ft 243 kts 80°
2026-04-20 06:38 33.45183 136.61717 27813 ft 242 kts 79°
2026-04-20 06:39 33.45187 136.63731 28109 ft 242 kts 79°
2026-04-20 06:39 33.45191 136.65741 28404 ft 241 kts 78°
2026-04-20 06:39 33.45193 136.67745 28712 ft 240 kts 78°
2026-04-20 06:39 33.45196 136.69742 29010 ft 239 kts 77°
2026-04-20 06:40 33.45200 136.71733 29292 ft 239 kts 77°
2026-04-20 06:40 33.45200 136.73722 29578 ft 239 kts 77°
2026-04-20 06:40 33.45201 136.75033 29769 ft 238 kts 76°
2026-04-20 06:40 33.45202 136.77012 30053 ft 237 kts 76°
2026-04-20 06:41 33.45202 136.78988 30294 ft 237 kts 76°
2026-04-20 06:41 33.45204 136.80964 30525 ft 237 kts 76°
2026-04-20 06:41 33.45203 136.82941 30758 ft 237 kts 76°
2026-04-20 06:41 33.45204 136.84918 30972 ft 238 kts 76°
2026-04-20 06:42 33.45210 136.86948 30977 ft 249 kts 77°
2026-04-20 06:42 33.45211 136.89061 30991 ft 258 kts 78°
2026-04-20 06:42 33.45207 136.91245 30990 ft 266 kts 78°
2026-04-20 06:42 33.45205 136.93488 30994 ft 274 kts 78°
2026-04-20 06:43 33.45202 136.95799 30990 ft 281 kts 79°
2026-04-20 06:43 33.45200 136.98162 31004 ft 287 kts 79°
2026-04-20 06:43 33.45196 137.00576 30995 ft 293 kts 80°
2026-04-20 06:43 33.45193 137.03037 30990 ft 299 kts 80°
2026-04-20 06:44 33.45189 137.05547 30990 ft 304 kts 80°
2026-04-20 06:44 33.45176 137.10687 30992 ft 313 kts 81°
2026-04-20 06:45 33.45164 137.15951 30990 ft 319 kts 81°
2026-04-20 06:45 33.45148 137.21308 30987 ft 324 kts 81°
2026-04-20 06:46 33.45128 137.26728 30989 ft 326 kts 81°
2026-04-20 06:46 33.45112 137.32147 30992 ft 326 kts 81°
2026-04-20 06:47 33.45088 137.37581 30992 ft 326 kts 81°
2026-04-20 06:47 33.45065 137.42992 30991 ft 324 kts 82°
2026-04-20 06:48 33.45039 137.48369 30989 ft 322 kts 81°
2026-04-20 06:48 33.45010 137.53715 30986 ft 321 kts 81°
2026-04-20 06:49 33.44979 137.59082 30994 ft 323 kts 81°
2026-04-20 06:49 33.44945 137.64483 31000 ft 326 kts 82°
2026-04-20 06:50 33.44909 137.69915 30993 ft 327 kts 82°
2026-04-20 06:50 33.44870 137.75334 30995 ft 324 kts 82°
2026-04-20 06:51 33.44830 137.80681 31007 ft 322 kts 84°
2026-04-20 06:51 33.44791 137.86101 31007 ft 328 kts 84°
2026-04-20 06:52 33.44743 137.91595 31008 ft 330 kts 84°
2026-04-20 06:52 33.44695 137.97080 31008 ft 329 kts 84°
2026-04-20 06:53 33.44643 138.02538 31006 ft 328 kts 86°
2026-04-20 06:53 33.44590 138.08036 31007 ft 331 kts 86°
2026-04-20 06:54 33.44533 138.13558 31009 ft 333 kts 86°
2026-04-20 06:54 33.44475 138.19111 31006 ft 334 kts 86°
2026-04-20 06:54 33.44445 138.21887 30884 ft 336 kts 87°
2026-04-20 06:55 33.44414 138.24697 30497 ft 337 kts 89°
2026-04-20 06:55 33.44382 138.27502 30050 ft 335 kts 89°
2026-04-20 06:55 33.44344 138.30265 29573 ft 330 kts 90°
2026-04-20 06:55 33.43985 138.32959 29134 ft 328 kts 105°
2026-04-20 06:56 33.43389 138.35602 28706 ft 330 kts 104°
2026-04-20 06:56 33.42818 138.38278 28270 ft 333 kts 104°
2026-04-20 06:56 33.42243 138.40976 27829 ft 336 kts 104°
2026-04-20 06:56 33.41652 138.43679 27386 ft 335 kts 104°
2026-04-20 06:57 33.41063 138.46369 26944 ft 332 kts 105°
2026-04-20 06:57 33.40485 138.49034 26507 ft 330 kts 105°
2026-04-20 06:57 33.39907 138.51690 26067 ft 330 kts 105°
2026-04-20 06:57 33.39332 138.54315 25642 ft 330 kts 105°
2026-04-20 06:58 33.38750 138.56976 25208 ft 331 kts 105°
2026-04-20 06:58 33.38161 138.59673 24767 ft 331 kts 105°
2026-04-20 06:58 33.37584 138.62305 24340 ft 332 kts 105°
2026-04-20 06:58 33.36990 138.65011 23894 ft 333 kts 105°
2026-04-20 06:59 33.36403 138.67694 23430 ft 333 kts 105°
2026-04-20 06:59 33.35814 138.70369 22965 ft 332 kts 105°
2026-04-20 06:59 33.35226 138.73042 22531 ft 333 kts 105°
2026-04-20 06:59 33.34644 138.75688 22090 ft 334 kts 105°
2026-04-20 07:00 33.34044 138.78410 21642 ft 334 kts 105°
2026-04-20 07:00 33.33460 138.81065 21208 ft 335 kts 105°
2026-04-20 07:00 33.32864 138.83757 20767 ft 335 kts 105°
2026-04-20 07:00 33.32268 138.86450 20324 ft 335 kts 105°
2026-04-20 07:01 33.31673 138.89144 19885 ft 335 kts 106°
2026-04-20 07:01 33.31076 138.91833 19444 ft 334 kts 106°
2026-04-20 07:01 33.30479 138.94525 19002 ft 336 kts 106°
2026-04-20 07:01 33.29878 138.97226 18559 ft 337 kts 107°
2026-04-20 07:02 33.29276 138.99932 18093 ft 337 kts 107°
2026-04-20 07:02 33.28675 139.02631 17632 ft 335 kts 107°
2026-04-20 07:02 33.28074 139.05322 17188 ft 336 kts 107°
2026-04-20 07:02 33.27474 139.08014 16747 ft 335 kts 107°
2026-04-20 07:03 33.26878 139.10689 16308 ft 331 kts 107°
2026-04-20 07:03 33.26287 139.13326 15874 ft 327 kts 107°
2026-04-20 07:03 33.25703 139.15936 15448 ft 324 kts 107°
2026-04-20 07:03 33.25123 139.18526 15017 ft 322 kts 107°
2026-04-20 07:04 33.24546 139.21101 14593 ft 320 kts 107°
2026-04-20 07:04 33.23972 139.23658 14174 ft 317 kts 107°
2026-04-20 07:04 33.23403 139.26192 13746 ft 315 kts 107°
2026-04-20 07:04 33.22837 139.28709 13296 ft 312 kts 107°
2026-04-20 07:05 33.22270 139.31198 12880 ft 309 kts 108°
2026-04-20 07:05 33.21701 139.33657 12474 ft 305 kts 108°
2026-04-20 07:05 33.21129 139.36084 12072 ft 302 kts 109°
2026-04-20 07:05 33.20571 139.38426 11684 ft 286 kts 109°
2026-04-20 07:06 33.20032 139.40658 11314 ft 274 kts 109°
2026-04-20 07:06 33.19511 139.42803 10958 ft 265 kts 110°
2026-04-20 07:06 33.19000 139.44884 10617 ft 258 kts 109°
2026-04-20 07:06 33.18495 139.46916 10280 ft 254 kts 109°
2026-04-20 07:07 33.17989 139.48922 9944 ft 251 kts 111°
2026-04-20 07:07 33.17482 139.50900 9594 ft 248 kts 111°
2026-04-20 07:07 33.16978 139.52854 9261 ft 245 kts 111°
2026-04-20 07:07 33.16477 139.54787 8941 ft 243 kts 110°
2026-04-20 07:08 33.15975 139.56706 8622 ft 242 kts 109°
2026-04-20 07:08 33.15470 139.58614 8301 ft 240 kts 111°
2026-04-20 07:08 33.14974 139.60511 7986 ft 238 kts 109°
2026-04-20 07:08 33.14562 139.62423 7672 ft 237 kts 106°
2026-04-20 07:09 33.14176 139.64331 7359 ft 236 kts 105°
2026-04-20 07:09 33.13792 139.66230 7048 ft 235 kts 107°
2026-04-20 07:09 33.13405 139.68093 6744 ft 234 kts 105°
2026-04-20 07:09 33.13007 139.69985 6431 ft 228 kts 106°
2026-04-20 07:10 33.12633 139.71782 6118 ft 219 kts 105°
2026-04-20 07:10 33.12283 139.73495 5830 ft 212 kts 105°
2026-04-20 07:10 33.11942 139.75189 5553 ft 208 kts 105°
2026-04-20 07:10 33.11617 139.76856 5282 ft 205 kts 104°
2026-04-20 07:11 33.11345 139.78513 5025 ft 202 kts 98°
2026-04-20 07:11 33.11332 139.80141 5007 ft 191 kts 88°
2026-04-20 07:11 33.11497 139.81666 4992 ft 181 kts 85°
2026-04-20 07:11 33.11650 139.83130 4992 ft 176 kts 86°
2026-04-20 07:12 33.11791 139.84571 4996 ft 173 kts 85°
2026-04-20 07:12 33.12338 139.85822 4998 ft 176 kts 45°
2026-04-20 07:12 33.13316 139.86699 5005 ft 176 kts 40°
2026-04-20 07:12 33.14310 139.87557 5006 ft 177 kts 41°
2026-04-20 07:13 33.15314 139.88404 5005 ft 177 kts 36°
2026-04-20 07:13 33.16531 139.88575 4996 ft 188 kts 345°
2026-04-20 07:13 33.17468 139.87522 4997 ft 191 kts 291°
2026-04-20 07:13 33.17398 139.86025 4997 ft 182 kts 238°
2026-04-20 07:14 33.16603 139.84892 5010 ft 177 kts 222°
2026-04-20 07:14 33.15752 139.83836 5012 ft 176 kts 221°
2026-04-20 07:14 33.14889 139.82798 5012 ft 176 kts 221°
2026-04-20 07:14 33.14013 139.81776 5012 ft 176 kts 220°
2026-04-20 07:15 33.13153 139.80718 5005 ft 178 kts 226°
2026-04-20 07:15 33.12289 139.79659 5005 ft 178 kts 220°
2026-04-20 07:15 33.11439 139.78584 5004 ft 177 kts 220°
2026-04-20 07:15 33.10532 139.77598 5009 ft 177 kts 217°
2026-04-20 07:16 33.09623 139.76674 5009 ft 165 kts 215°
2026-04-20 07:16 33.08776 139.75775 4838 ft 163 kts 217°
2026-04-20 07:16 33.07921 139.74901 4620 ft 162 kts 217°
2026-04-20 07:16 33.07090 139.73973 4388 ft 163 kts 220°
2026-04-20 07:17 33.06285 139.73034 4207 ft 162 kts 221°
2026-04-20 07:17 33.05463 139.72096 3964 ft 163 kts 217°
2026-04-20 07:17 33.04604 139.71242 3821 ft 159 kts 215°
2026-04-20 07:17 33.03754 139.70387 3592 ft 161 kts 216°
2026-04-20 07:18 33.02894 139.69540 3423 ft 159 kts 213°
2026-04-20 07:18 33.02024 139.68728 3233 ft 159 kts 213°
2026-04-20 07:18 33.01171 139.67904 3076 ft 158 kts 214°
2026-04-20 07:18 33.00392 139.67057 3130 ft 146 kts 218°
2026-04-20 07:19 32.99660 139.66223 3094 ft 145 kts 218°
2026-04-20 07:19 32.98935 139.65394 3064 ft 143 kts 218°
2026-04-20 07:19 32.98256 139.64555 3092 ft 141 kts 220°
2026-04-20 07:19 32.97811 139.63509 3094 ft 151 kts 258°
2026-04-20 07:20 32.98071 139.62321 3098 ft 154 kts 303°
2026-04-20 07:20 32.98903 139.61568 3114 ft 149 kts 346°
2026-04-20 07:20 32.99888 139.61575 3102 ft 140 kts 28°
2026-04-20 07:20 33.00600 139.62267 3095 ft 131 kts 60°
2026-04-20 07:21 33.01161 139.63119 3092 ft 131 kts 56°
2026-04-20 07:21 33.01752 139.63961 3052 ft 133 kts 57°
2026-04-20 07:21 33.02341 139.64828 2982 ft 136 kts 58°
2026-04-20 07:21 33.02942 139.65704 2900 ft 138 kts 56°
2026-04-20 07:22 33.03556 139.66599 2806 ft 141 kts 56°
2026-04-20 07:22 33.04207 139.67501 2681 ft 145 kts 56°
2026-04-20 07:22 33.04864 139.68416 2577 ft 145 kts 57°
2026-04-20 07:22 33.05512 139.69329 2491 ft 143 kts 57°
2026-04-20 07:23 33.06108 139.70260 2395 ft 140 kts 63°
2026-04-20 07:23 33.06735 139.71172 2270 ft 146 kts 51°
2026-04-20 07:23 33.07515 139.71963 2172 ft 147 kts 46°
2026-04-20 07:23 33.08321 139.72725 2012 ft 148 kts 46°
2026-04-20 07:24 33.09078 139.73459 1883 ft 126 kts 48°
2026-04-20 07:24 33.09725 139.74132 1483 ft 121 kts 51°
2026-04-20 07:24 33.10233 139.74893 1091 ft 115 kts 65°
2026-04-20 07:24 33.10609 139.75722 741 ft 110 kts 73°
2026-04-20 07:25 33.10856 139.76526 532 ft 98 kts 73°
2026-04-20 07:25 33.11073 139.77261 365 ft 91 kts 70°
2026-04-20 07:25 33.11300 139.77923 294 ft 80 kts 78°
2026-04-20 07:25 33.11446 139.78440 288 ft 49 kts 53°
2026-04-20 07:26 33.11497 139.78517 289 ft 5 kts 269°
2026-04-20 07:26 33.11482 139.78469 289 ft 7 kts 246°
2026-04-20 07:26 33.11459 139.78389 288 ft 11 kts 265°
2026-04-20 07:26 33.11513 139.78337 289 ft 10 kts 344°
2026-04-20 07:27 33.11557 139.78367 289 ft 6 kts 68°
2026-04-20 07:27 33.11564 139.78406 289 ft 3 kts 32°
2026-04-20 07:27 33.11574 139.78404 289 ft 2 kts 349°
2026-04-20 07:27 33.11586 139.78400 289 ft 1 kts 281°
2026-04-20 07:28 33.11586 139.78398 289 ft 0 kts 246°